Regional Weather Roundup
Issued by NWS Nashville, TN

Home | Current Version | Previous Version | Text Only | Print | Product List | Glossary On
Versions: 1 2 3 4 5 6 7 8 9 10 11 12 13 14 15 16 17 18 19 20 21 22 23 24 25 26 27 28
000
ASUS44 KOHX 290210
RWROHX
MIDDLE TENNESSEE HOURLY WEATHER ROUNDUP
NATIONAL WEATHER SERVICE NASHVILLE TN
900 PM CDT THU JUL 28 2016

NOTE: "FAIR" INDICATES FEW OR NO CLOUDS BELOW 12,000 FEET WITH
NO SIGNIFICANT WEATHER AND/OR OBSTRUCTIONS TO VISIBILITY.

* THESE REPORTS ARE NOT UNDER NWS QUALITY CONTROL AND MAY NOT
  REPORT WEATHER SUCH AS PRECIPITATION AND FOG.


TNZ005>011-023>034-057-059-062>066-078-080-290300
...NORTHERN MIDDLE TENNESSEE...

CITY           SKY/WX    TMP DP  RH WIND       PRES   REMARKS
CLARKSVILLE    CLEAR     80  75  84 S3        29.92S
CROSSVILLE     CLOUDY    71  70  96 W3        30.03R
NASHVILLE      MOCLDY    79  73  82 S6        29.95R
SMYRNA         MOCLDY    80  74  82 S3        29.96R
SPARTA         CLEAR     73  73 100 CALM      29.98R
$$
TNZ056-058-060-061-075>077-079-093>097-290300
...SOUTHERN MIDDLE TENNESSEE...

CITY           SKY/WX    TMP DP  RH WIND       PRES   REMARKS
COLUMBIA       CLEAR    N/A N/A N/A S7        29.96R
FAYETTEVILLE   PTCLDY    72  72 100 SW3       29.99S
MCMINNVILLE    MOCLDY    75  75 100 CALM      29.99R
SHELBYVILLE    PTCLDY    75  73  94 S7        29.99R
TULLAHOMA      MOCLDY    72  72 100 SW5       30.01S
WINCHESTER     MOCLDY    72  72 100 CALM      30.00S
$$


...KEY TO REMARKS...
VSB - VISIBILITY IN MILES
WCI - WIND CHILL INDEX
HX  - HEAT INDEX





USA.gov is the U.S. government's official web portal to all federal, state and local government web resources and services.